[[{"header":{"parameterUnit":"m.s-1","parameterCategory":1,"la1":30.2991,"la2":30.254,"lo1":-89.0895,"lo2":-89.0444,"dy":0.0017,"dx":0.0017,"nx":28,"ny":28,"refTime":"2025-06-22T21:00:00:Z","depth":0,"parameterNumber":2,"parameterNumberName":"U-component_of_WINDS"},"data":[0,0,0,0,0,0,0,0,0,0,0,0,0,0,0,0,0,0,0,0,0,0,0,0,0,0,0,0,0,0,0,0,0,0,0,0,0,0,0,0,0,0,0,0,0,0,0,0,0,0,0,0,0,0,0,0,0,0,-1.8294,-1.8294,0,-1.8323,-1.8323,-1.8323,-1.8286,-1.8285,-1.8283,-1.8282,-1.8311,-1.8313,-1.8315,0,0,0,0,0,0,0,0,0,0,0,0,0,-1.8206,-1.8208,-1.8294,-1.8294,-1.8295,-1.8323,-1.8323,-1.8323,-1.8286,-1.8284,-1.8283,-1.8281,-1.8311,-1.8313,-1.8315,0,0,0,0,0,0,0,0,0,0,0,0,0,-1.824,-1.8208,-1.8294,-1.8279,-1.8278,-1.8323,-1.8323,-1.8324,-1.8286,-1.8284,-1.8282,-1.8281,-1.831,-1.8313,-1.8316,-1.8375,0,0,-1.8325,-1.8326,0,0,0,0,0,0,0,0,-1.8239,-1.8244,-1.8281,-1.828,-1.8279,-1.8299,-1.8303,-1.8341,-1.8287,-1.8283,-1.8282,-1.828,-1.8309,-1.8312,-1.8322,-1.8377,-1.8378,-1.8325,-1.8327,-1.8329,-1.8329,0,0,0,0,0,0,0,-1.8236,-1.8242,-1.8305,-1.8282,-1.8281,-1.8271,-1.8274,-1.831,-1.8307,-1.8284,-1.8281,-1.8285,-1.8308,-1.8319,-1.8322,-1.8378,-1.8325,-1.8328,-1.833,-1.8331,-1.8484,-1.8486,0,0,0,0,0,0,-1.8236,-1.8241,-1.8304,-1.8306,-1.8254,-1.8275,-1.8277,-1.8294,-1.8307,-1.8306,-1.8287,-1.8283,-1.8314,-1.8318,-1.8323,-1.8393,-1.8329,-1.8331,-1.8333,-1.8481,-1.8484,-1.8486,0,0,0,0,0,0,-1.8234,-1.8242,-1.8303,-1.8273,-1.828,-1.8278,-1.8298,-1.8296,-1.8307,-1.8309,-1.8308,-1.8298,-1.8313,-1.8319,-1.8362,-1.8393,-1.8333,-1.8336,-1.8479,-1.8482,-1.8485,-1.8534,0,0,0,0,0,0,-1.8231,-1.8241,-1.8264,-1.8273,-1.8282,-1.8343,-1.83,-1.8298,-1.8312,-1.8308,-1.832,-1.832,-1.8312,-1.8358,-1.8366,-1.8397,-1.8338,-1.8476,-1.848,-1.8484,-1.853,-1.8539,-1.8546,0,0,0,0,0,-1.8228,-1.8277,-1.8265,-1.8273,-1.831,-1.8344,-1.8349,-1.8339,-1.8315,-1.8338,-1.8339,-1.8319,-1.8389,-1.8363,-1.8371,-1.8403,-1.8474,-1.8479,-1.8484,-1.8526,-1.8537,-1.8546,0,0,0,0,0,0,-1.8271,-1.8278,-1.8265,-1.8318,-1.8331,-1.8338,-1.8366,-1.8351,-1.8371,-1.8366,-1.8353,-1.8356,-1.8403,-1.8408,-1.8378,-1.8462,-1.8427,-1.8434,-1.8457,-1.8467,-1.8475,-1.8473,-1.8341,0,0,0,0,0,-1.8286,-1.8314,-1.8318,-1.8364,-1.8372,-1.8368,-1.8383,-1.8374,-1.8387,-1.8392,-1.8397,-1.841,-1.8435,-1.8451,-1.8474,-1.853,-1.8532,-1.8557,-1.8565,-1.8572,-1.8578,-1.8607,-1.8618,-1.8503,-1.8503,-1.8503,0,0,-1.8319,-1.8326,-1.8344,-1.8373,-1.8382,-1.8411,-1.8373,-1.8405,-1.8426,-1.8397,-1.8439,-1.8442,-1.8456,-1.8507,-1.8529,-1.8512,-1.861,-1.8578,-1.8584,-1.8586,-1.8613,-1.8624,-1.8634,-1.8506,-1.8505,-1.8505,0,0,-1.8392,-1.84,-1.8439,-1.8449,-1.8463,-1.8461,-1.847,-1.848,-1.8481,-1.8523,-1.8502,-1.8526,-1.857,-1.858,-1.8591,-1.8669,-1.8651,-1.8676,-1.872,-1.8749,-1.8758,-1.8766,-1.8793,-1.8803,-1.8682,-1.8683,-1.8683,0,-1.843,-1.8473,-1.8461,-1.8495,-1.8508,-1.8483,-1.8523,-1.8533,-1.8554,-1.8563,-1.8544,-1.8598,-1.8605,-1.8657,-1.8676,-1.8686,-1.8696,-1.8675,-1.8757,-1.8765,-1.8772,-1.8798,-1.8808,-1.8685,-1.8685,-1.8685,-1.8685,0,-1.8519,-1.8548,-1.8578,-1.8599,-1.8616,-1.8652,-1.8646,-1.8664,-1.8654,-1.8653,-1.8696,-1.8704,-1.8728,-1.874,-1.8731,-1.8791,-1.878,-1.8759,-1.8725,-1.8787,-1.881,-1.882,-1.869,-1.8689,-1.8688,-1.8687,0,0,-1.8619,-1.8633,-1.8644,-1.8653,-1.8667,-1.869,-1.8725,-1.8748,-1.8764,-1.8779,-1.8808,-1.8845,-1.8826,-1.8839,-1.883,-1.8856,-1.8916,-1.8832,-1.8832,-1.8847,-1.8982,-1.8997,-1.9008,-1.8904,-1.8906,-1.8908,-1.8981,0,-1.8692,-1.8752,-1.8743,-1.8802,-1.8828,-1.8805,-1.8836,-1.8848,-1.8848,-1.8871,-1.8871,-1.8897,-1.887,-1.8878,-1.8902,-1.8903,-1.8943,-1.8898,-1.8931,-1.8932,-1.8927,-1.9021,-1.9037,-1.9105,-1.899,-1.8991,-1.8993,0,-1.8785,-1.8804,-1.8864,-1.8874,-1.8885,-1.8912,-1.8933,-1.8955,-1.8968,-1.8966,-1.898,-1.8967,-1.9002,-1.8967,-1.9014,-1.8984,-1.8997,-1.9,-1.9002,-1.9004,-1.8965,-1.9025,-1.9127,-1.9137,-1.9007,-1.9006,-1.9005,0,-1.8851,-1.8892,-1.8933,-1.8942,-1.8954,-1.8973,-1.8979,-1.899,-1.9005,-1.9023,-1.9032,-1.9054,-1.9066,-1.9083,-1.9076,-1.9052,-1.9125,-1.909,-1.9124,-1.9124,-1.914,-1.9139,-1.9245,-1.915,-1.9149,-1.9149,-1.9149,0,-1.8933,-1.8971,-1.8963,-1.8989,-1.903,-1.902,-1.9061,-1.9064,-1.9074,-1.91,-1.9081,-1.9106,-1.9095,-1.9119,-1.9114,-1.9153,-1.9159,-1.9159,-1.9157,-1.916,-1.916,-1.9168,-1.9162,-1.9152,-1.9151,-1.9151,-1.915,0,-1.9014,-1.9011,-1.9054,-1.9062,-1.9065,-1.9095,-1.9101,-1.9125,-1.9124,-1.9157,-1.9164,-1.9162,-1.9189,-1.9184,-1.9213,-1.921,-1.926,-1.9252,-1.9255,-1.9253,-1.9288,-1.9284,-1.9402,-1.9416,-1.9312,-1.9313,-1.9314,0,-1.9067,-1.9095,-1.9106,-1.9122,-1.9129,-1.9155,-1.9169,-1.916,-1.9176,-1.9192,-1.9214,-1.9239,-1.9259,-1.9303,-1.9304,-1.9327,-1.9319,-1.9359,-1.9322,-1.9325,-1.9319,-1.9317,-1.932,-1.9366,-1.9367,-1.9368,-1.9369,0,-1.916,-1.9156,-1.9178,-1.92,-1.9218,-1.9234,-1.9248,-1.9262,-1.9254,-1.9273,-1.93,-1.9315,-1.9345,-1.9371,-1.9391,-1.9397,-1.9382,-1.938,-1.9389,-1.9392,-1.9393,-1.9392,-1.9274,-1.9377,-1.9377,-1.9376,-1.9375,-1.9375,-1.9228,-1.9252,-1.9263,-1.9288,-1.9298,-1.9312,-1.9334,-1.9336,-1.9358,-1.9382,-1.9375,-1.9406,-1.9417,-1.9444,-1.9452,-1.9476,-1.9461,-1.9474,-1.9478,-1.9481,-1.9485,-1.939,-1.948,-1.9479,-1.9479,-1.9479,-1.9479,0,-1.9319,-1.9325,-1.9348,-1.9369,-1.9388,-1.9372,-1.9387,-1.9405,-1.9432,-1.9444,-1.9464,-1.9495,-1.9519,-1.9522,-1.9545,-1.9563,-1.9557,-1.9569,-1.9568,-1.9569,-1.9497,-1.9486,-1.9574,-1.9574,-1.9574,-1.9574,-1.9574,-1.9574,-1.9369,-1.9409,-1.9407,-1.9451,-1.9457,-1.9486,-1.9496,-1.9509,-1.9519,-1.9554,-1.9574,-1.9576,-1.9585,-1.9608,-1.9629,-1.9629,-1.9638,-1.9654,-1.9652,-1.9584,-1.9574,-1.9565,-1.9555,-1.9656,-1.9656,-1.9722,-1.9722,-1.9723]},{"header":{"parameterUnit":"m.s-1","parameterCategory":1,"la1":30.2991,"la2":30.254,"lo1":-89.0895,"lo2":-89.0444,"dy":0.0017,"dx":0.0017,"nx":28,"ny":28,"refTime":"2025-06-22T21:00:00:Z","depth":0,"parameterNumber":3,"parameterNumberName":"V-component_of_WINDS"},"data":[0,0,0,0,0,0,0,0,0,0,0,0,0,0,0,0,0,0,0,0,0,0,0,0,0,0,0,0,0,0,0,0,0,0,0,0,0,0,0,0,0,0,0,0,0,0,0,0,0,0,0,0,0,0,0,0,0,0,0.3234,0.3234,0,0.3192,0.3191,0.3191,0.3129,0.3128,0.3127,0.3126,0.3081,0.3081,0.308,0,0,0,0,0,0,0,0,0,0,0,0,0,0.3263,0.3263,0.3234,0.3234,0.3233,0.3192,0.3191,0.319,0.3129,0.3128,0.3127,0.3126,0.3081,0.3081,0.308,0,0,0,0,0,0,0,0,0,0,0,0,0,0.3239,0.3263,0.3235,0.3198,0.3194,0.3192,0.3191,0.319,0.313,0.3128,0.3126,0.3125,0.3081,0.3081,0.308,0.311,0,0,0.3079,0.3079,0,0,0,0,0,0,0,0,0.324,0.3238,0.3204,0.32,0.3196,0.3164,0.3184,0.3163,0.313,0.3154,0.3126,0.3124,0.311,0.3107,0.3102,0.3108,0.3106,0.3079,0.3079,0.3079,0.3079,0,0,0,0,0,0,0,0.3242,0.3239,0.3217,0.3203,0.3199,0.3183,0.3178,0.318,0.3141,0.3152,0.3147,0.3143,0.3107,0.3103,0.3101,0.3105,0.3079,0.3079,0.3079,0.3079,0.3133,0.3135,0,0,0,0,0,0,0.3249,0.3241,0.3219,0.3216,0.3215,0.3184,0.3178,0.3176,0.3141,0.3134,0.3145,0.314,0.3104,0.3101,0.3099,0.3131,0.3079,0.3079,0.3078,0.3132,0.3134,0.3135,0,0,0,0,0,0,0.325,0.3248,0.322,0.3227,0.3223,0.3185,0.3183,0.3176,0.3171,0.3136,0.3128,0.3147,0.3103,0.3099,0.3108,0.3129,0.3079,0.3078,0.313,0.3132,0.3135,0.3197,0,0,0,0,0,0,0.3251,0.3248,0.3259,0.3228,0.3223,0.323,0.3185,0.3176,0.3171,0.3165,0.3136,0.313,0.3101,0.3109,0.3108,0.3128,0.3078,0.3128,0.3131,0.3134,0.3192,0.3201,0.3208,0,0,0,0,0,0.3252,0.3278,0.326,0.3258,0.3235,0.3232,0.3229,0.3196,0.3173,0.3184,0.3161,0.313,0.3127,0.311,0.3108,0.3129,0.3126,0.313,0.3134,0.3189,0.3199,0.3208,0,0,0,0,0,0,0.3312,0.3273,0.3253,0.3269,0.3254,0.3221,0.3234,0.3208,0.3199,0.3193,0.3153,0.3147,0.316,0.3145,0.3127,0.3156,0.3122,0.3126,0.3165,0.3174,0.3182,0.3185,0.3078,0,0,0,0,0,0.3327,0.3328,0.3294,0.3312,0.3305,0.3271,0.3268,0.3244,0.3227,0.322,0.3198,0.3182,0.3177,0.3175,0.3169,0.319,0.3183,0.3203,0.3211,0.3218,0.3221,0.3232,0.324,0.3148,0.3148,0.3147,0,0,0.3358,0.3337,0.334,0.3323,0.3309,0.331,0.3266,0.3269,0.327,0.3221,0.3227,0.3211,0.319,0.3206,0.3211,0.3193,0.3245,0.3223,0.3228,0.3228,0.3236,0.3245,0.3253,0.315,0.315,0.3149,0,0,0.3416,0.34,0.3413,0.34,0.3379,0.3356,0.336,0.3331,0.3318,0.3325,0.3288,0.3288,0.3281,0.3268,0.326,0.3315,0.3286,0.3314,0.3354,0.3365,0.3372,0.3378,0.3398,0.3405,0.3317,0.3317,0.3317,0,0.3457,0.3458,0.3423,0.3429,0.3423,0.3379,0.3393,0.3381,0.3359,0.3356,0.3337,0.3327,0.331,0.3322,0.3336,0.3331,0.3333,0.3316,0.3374,0.338,0.3385,0.3403,0.3411,0.3321,0.332,0.332,0.332,0,0.351,0.3511,0.3524,0.3505,0.35,0.3509,0.3476,0.3476,0.3453,0.3432,0.344,0.3418,0.3407,0.3408,0.3385,0.3417,0.3407,0.3381,0.3347,0.3398,0.3414,0.3421,0.3326,0.3324,0.3323,0.3323,0,0,0.3602,0.3565,0.357,0.3561,0.3535,0.3535,0.3543,0.3533,0.3533,0.352,0.3525,0.3521,0.3497,0.3489,0.3465,0.3474,0.3519,0.3448,0.3447,0.3462,0.3552,0.3571,0.358,0.35,0.3502,0.3503,0.3554,0,0.3654,0.3665,0.3635,0.3654,0.3655,0.3614,0.3621,0.3606,0.3587,0.3585,0.3564,0.3562,0.3531,0.3526,0.3534,0.3512,0.3536,0.3508,0.3505,0.3505,0.3511,0.3588,0.3608,0.3658,0.356,0.3561,0.3562,0,0.3716,0.3707,0.3726,0.37,0.3699,0.3705,0.3694,0.3693,0.3675,0.3661,0.3652,0.3624,0.363,0.3598,0.3605,0.3587,0.3584,0.3573,0.3574,0.3572,0.3536,0.3588,0.3673,0.368,0.3572,0.3571,0.357,0,0.3781,0.3774,0.3784,0.3778,0.3747,0.3753,0.3741,0.3722,0.3718,0.3708,0.3705,0.3696,0.3691,0.3684,0.3655,0.3634,0.3666,0.3631,0.3654,0.3655,0.3662,0.3661,0.3747,0.3661,0.3661,0.3661,0.3661,0,0.3842,0.3855,0.3813,0.3819,0.3833,0.3799,0.3813,0.3797,0.3781,0.3783,0.3748,0.3751,0.3712,0.3711,0.3688,0.3697,0.3695,0.3684,0.3677,0.3687,0.3688,0.3684,0.3679,0.3663,0.3662,0.3662,0.3661,0,0.3917,0.3889,0.3898,0.3869,0.3863,0.3874,0.3849,0.3854,0.3834,0.3837,0.3836,0.3804,0.3801,0.3772,0.3762,0.3746,0.3765,0.3752,0.3771,0.3766,0.3791,0.3789,0.3876,0.3886,0.3795,0.3795,0.3796,0,0.3957,0.3967,0.3939,0.3939,0.3928,0.3928,0.3924,0.3891,0.3888,0.3869,0.3877,0.3871,0.3864,0.3861,0.3837,0.383,0.3816,0.3847,0.3814,0.3824,0.3816,0.3816,0.3817,0.3854,0.3855,0.3856,0.3857,0,0.4032,0.4018,0.4014,0.4005,0.4002,0.3993,0.3982,0.3984,0.3947,0.3946,0.3943,0.3938,0.3929,0.3924,0.3912,0.3899,0.3872,0.3867,0.3872,0.3881,0.3892,0.3886,0.3789,0.3865,0.3864,0.3864,0.3863,0.3863,0.409,0.4097,0.4079,0.4075,0.4064,0.4055,0.4059,0.4039,0.4036,0.4026,0.4007,0.4007,0.399,0.3972,0.3961,0.3961,0.3944,0.3951,0.3953,0.3955,0.396,0.3893,0.3958,0.3958,0.3958,0.3958,0.3957,0,0.4162,0.4149,0.4147,0.4133,0.4131,0.4107,0.4094,0.4093,0.4094,0.408,0.4075,0.4072,0.4067,0.4043,0.4036,0.404,0.4027,0.4039,0.4038,0.4035,0.3975,0.3972,0.4049,0.4049,0.4049,0.4049,0.4049,0.4049,0.42,0.421,0.4194,0.4198,0.4185,0.4185,0.418,0.4171,0.4161,0.4159,0.4155,0.4139,0.4122,0.4113,0.4108,0.4101,0.4099,0.4115,0.4104,0.4048,0.4039,0.4031,0.4027,0.4115,0.4115,0.4164,0.4165,0.4165]}]]